DW7572 Weather Reports


time (UTC)temp
C
wind
direction
speed
KPH
gust
KPH
rain 1hr
cm
rain 24hr
cm
rain mn
cm
humidity
%
barometer
mb
20260904183516 31 23 8.0 12.9 0.00 0.00 0.00 74 1012.8
20260904182516 31 45 11.3 19.3 0.00 0.00 0.00 74 1012.9
20260904181516 31 23 9.7 19.3 0.00 0.00 0.00 73 1012.9
20260904180516 31 23 9.7 16.1 0.00 0.00 0.00 73 1012.8
20260904175517 31 0 8.0 14.5 0.00 0.00 0.00 77 1012.7
20260904174537 31 338 9.7 16.1 0.00 0.00 0.00 75 1012.8
20260904173516 30 45 6.4 12.9 0.00 0.00 0.00 78 1012.8
20260904172516 30 0 6.4 14.5 0.00 0.00 0.00 77 1012.8
20260904171536 30 315 8.0 16.1 0.00 0.00 0.00 78 1012.7
20260904170516 29 45 4.8 9.7 0.00 0.00 0.00 81 1012.5
20260904165515 29 23 4.8 9.7 0.00 0.00 0.00 82 1012.6
20260904164516 28 0 3.2 4.8 0.00 0.00 0.00 82 1012.5
20260904163541 28 23 4.8 8.0 0.00 0.00 0.00 83 1012.4
20260904162516 28 315 6.4 16.1 0.00 0.00 0.00 84 1012.4
20260904161516 28 68 3.2 8.0 0.00 0.00 0.00 85 1012.3
20260904160516 27 68 3.2 8.0 0.00 0.00 0.00 84 1012.2
20260904155516 27 45 4.8 8.0 0.00 0.00 0.00 85 1012.1
20260904154515 27 90 3.2 4.8 0.00 0.00 0.00 87 1012.0
20260904153520 27 338 3.2 6.4 0.00 0.00 0.00 85 1012.1
20260904152515 27 293 1.6 6.4 0.00 0.00 0.00 88 1012.0
20260904151516 26 293 3.2 6.4 0.00 0.00 0.00 88 1011.9
20260904150516 26 225 1.6 4.8 0.00 0.00 0.00 89 1011.9
20260904145515 26 225 4.8 6.4 0.00 0.00 0.00 89 1011.9
20260904144515 26 270 1.6 8.0 0.00 0.00 0.00 90 1011.9
20260904143536 25 270 1.6 6.4 0.00 0.00 0.00 90 1011.8
20260904142516 25 270 1.6 9.7 0.00 0.00 0.00 91 1011.8
20260904141515 25 248 3.2 6.4 0.00 0.00 0.00 93 1011.6
20260904140516 25 248 1.6 4.8 0.00 0.00 0.00 94 1011.6
20260904135515 24 203 4.8 9.7 0.00 0.00 0.00 96 1011.6
20260904134517 23 203 4.8 6.4 0.00 0.00 0.00 96 1011.5
20260904133517 23 203 3.2 6.4 0.00 0.00 0.00 97 1011.5
20260904132517 22 203 4.8 6.4 0.00 0.00 0.00 98 1011.5
20260904131517 22 203 6.4 8.0 0.00 0.00 0.00 98 1011.4
20260904130537 22 180 3.2 6.4 0.00 0.00 0.00 98 1011.5
20260904125517 21 180 4.8 8.0 0.00 0.00 0.00 98 1011.4
20260904124517 21 180 4.8 8.0 0.00 0.00 0.00 98 1011.3
20260904123518 21 180 3.2 6.4 0.00 0.00 0.00 98 1011.3
20260904122517 21 0.0 0.0 0.00 0.00 0.00 98 1011.2
20260904121517 21 0.0 0.0 0.00 0.00 0.00 98 1011.1
20260904120518 21 0.0 3.2 0.00 0.00 0.00 98 1011.1
20260904115517 21 0.0 0.0 0.00 0.00 0.00 97 1010.9
20260904114517 21 0.0 0.0 0.00 0.00 0.00 97 1010.8
20260904113517 21 0.0 0.0 0.00 0.00 0.00 97 1010.7
20260904112517 21 0.0 0.0 0.00 0.00 0.00 97 1010.6
20260904111517 21 0.0 1.6 0.00 0.00 0.00 97 1010.5
20260904110518 21 203 3.2 4.8 0.00 0.00 0.00 97 1010.5
20260904105517 21 203 3.2 6.4 0.00 0.00 0.00 97 1010.4
20260904104517 22 203 4.8 6.4 0.00 0.00 0.00 97 1010.4
20260904103558 22 203 4.8 6.4 0.00 0.00 0.00 97 1010.4
20260904102537 22 203 3.2 4.8 0.00 0.00 0.00 97 1010.6
20260904101537 22 203 3.2 4.8 0.00 0.03 0.00 97 1010.6
20260904100517 22 203 3.2 4.8 0.00 0.46 0.00 96 1010.6
20260904095517 22 203 4.8 6.4 0.00 0.61 0.00 96 1010.6
20260904094517 22 203 4.8 6.4 0.00 0.64 0.00 96 1010.5
20260904093517 22 0.0 0.0 0.00 0.64 0.00 96 1010.3
20260904092517 22 0.0 0.0 0.00 0.64 0.00 96 1010.2
20260904091618 22 0.0 0.0 0.00 0.64 0.00 96 1010.2
20260904090516 22 0.0 1.6 0.00 0.64 0.00 96 1010.2
20260904085537 23 203 1.6 3.2 0.00 0.64 0.00 96 1010.0
20260904084537 23 203 4.8 6.4 0.00 0.64 0.00 96 1010.0
20260904083517 23 203 4.8 8.0 0.00 0.64 0.00 96 1010.0
20260904082538 23 203 6.4 8.0 0.00 0.64 0.00 96 1010.0
20260904081517 23 203 4.8 6.4 0.00 0.64 0.00 96 1009.9
20260904080517 23 203 3.2 6.4 0.00 0.64 0.00 96 1010.0
20260904075517 23 203 4.8 8.0 0.00 0.64 0.00 96 1010.1
20260904074517 23 203 4.8 8.0 0.00 0.64 0.00 96 1010.0
20260904073517 23 203 4.8 6.4 0.00 0.64 0.00 95 1010.1
20260904072517 23 203 4.8 8.0 0.00 0.64 0.00 95 1010.2
20260904071516 24 180 4.8 8.0 0.00 0.64 0.00 95 1010.2
20260904070517 24 180 6.4 9.7 0.00 0.64 0.00 95 1010.2
20260904065516 24 180 4.8 9.7 0.00 0.64 0.00 96 1010.2
20260904064517 24 180 6.4 11.3 0.00 0.64 0.00 95 1010.2
20260904063516 24 180 8.0 12.9 0.00 0.64 0.00 96 1010.3
20260904062516 24 180 8.0 14.5 0.00 0.64 0.00 96 1010.0
20260904061516 24 180 9.7 12.9 0.00 0.64 0.00 96 1010.0
20260904060517 24 158 9.7 14.5 0.00 0.64 0.00 95 1009.9
20260904055517 24 158 9.7 14.5 0.00 0.64 0.00 95 1009.9
20260904054516 24 158 8.0 11.3 0.00 0.64 0.00 95 1009.9
20260904053516 24 158 8.0 11.3 0.00 0.64 0.00 95 1009.9
20260904052517 24 158 8.0 11.3 0.00 0.64 0.00 95 1009.8
20260904051516 23 180 4.8 9.7 0.00 0.64 0.00 95 1009.7
20260904050537 24 180 6.4 9.7 0.00 0.64 0.00 94 1009.6
20260904045517 24 180 6.4 9.7 0.00 0.64 0.64 94 1009.6
20260904044517 24 180 8.0 11.3 0.00 0.64 0.64 94 1009.5
20260904043517 24 180 8.0 11.3 0.00 0.64 0.64 94 1009.4
20260904042517 24 180 12.9 17.7 0.00 0.64 0.64 93 1009.4
20260904041518 25 180 11.3 17.7 0.00 0.64 0.64 93 1009.4
20260904040517 25 180 11.3 16.1 0.00 0.64 0.64 93 1009.6
20260904035518 25 180 11.3 16.1 0.00 0.64 0.64 93 1009.8
20260904034517 25 180 8.0 11.3 0.00 0.64 0.64 93 1009.8
20260904033517 25 180 8.0 12.9 0.00 0.64 0.64 94 1009.8
20260904032517 24 180 8.0 12.9 0.00 0.64 0.64 94 1009.8
20260904031518 24 180 6.4 9.7 0.00 0.64 0.64 93 1009.7
20260904030517 25 180 8.0 11.3 0.00 0.64 0.64 93 1009.6
20260904025517 25 180 8.0 12.9 0.00 0.64 0.64 92 1009.5
20260904024517 25 180 9.7 11.3 0.00 0.64 0.64 93 1009.3
20260904023517 25 180 8.0 11.3 0.00 0.64 0.64 92 1009.3
20260904022517 25 180 8.0 12.9 0.00 0.64 0.64 92 1009.1
20260904021517 25 180 8.0 11.3 0.00 0.64 0.64 92 1009.3
20260904020517 25 180 8.0 11.3 0.00 0.64 0.64 93 1009.2
20260904015517 25 158 6.4 8.0 0.00 0.64 0.64 93 1009.0
20260904014522 25 158 8.0 11.3 0.00 0.64 0.64 93 1008.9
20260904013522 25 158 8.0 9.7 0.00 0.64 0.64 93 1008.7
20260904012517 25 158 8.0 9.7 0.00 0.64 0.64 92 1008.5
20260904011537 25 158 4.8 8.0 0.00 0.64 0.64 92 1008.4
20260904010517 25 158 4.8 8.0 0.00 0.64 0.64 90 1008.4
20260904005517 26 158 4.8 8.0 0.00 0.64 0.64 89 1008.4
20260904004517 26 158 6.4 12.9 0.00 0.64 0.64 88 1008.4
20260904003517 26 158 4.8 6.4 0.00 0.64 0.64 87 1008.4
20260904002517 27 158 6.4 8.0 0.00 0.64 0.64 84 1008.3
20260904001516 27 158 6.4 9.7 0.00 0.64 0.64 82 1008.3
20260904000517 27 158 6.4 11.3 0.00 0.64 0.64 81 1008.3
20260903235516 28 158 8.0 11.3 0.00 0.64 0.64 79 1008.3
20260903234518 28 180 11.3 19.3 0.00 0.64 0.64 78 1008.2
20260903233517 28 180 11.3 17.7 0.00 0.64 0.64 77 1007.9
20260903232516 28 180 9.7 16.1 0.00 0.64 0.64 78 1007.9
20260903231516 28 180 9.7 14.5 0.00 0.64 0.64 76 1008.1
20260903230517 28 203 14.5 24.1 0.00 0.64 0.64 75 1008.2
20260903225517 30 203 19.3 29.0 0.00 0.64 0.64 72 1008.6
20260903224517 30 203 20.9 30.6 0.00 0.64 0.64 71 1008.5
20260903223516 30 203 19.3 35.4 0.00 0.64 0.64 71 1008.2
20260903222517 30 203 14.5 20.9 0.00 0.64 0.64 73 1008.1
20260903221516 29 180 11.3 22.5 0.00 0.64 0.64 73 1007.8
20260903220517 30 180 16.1 22.5 0.00 0.64 0.64 71 1007.6
20260903215517 30 180 17.7 25.7 0.00 0.64 0.64 69 1007.5
20260903214517 30 180 17.7 27.4 0.00 0.64 0.64 68 1007.3
20260903213516 30 180 17.7 25.7 0.00 0.64 0.64 67 1007.6
20260903212516 30 203 19.3 32.2 0.00 0.64 0.64 67 1008.0
20260903211537 30 203 17.7 33.8 0.00 0.64 0.64 69 1008.2
20260903210516 30 203 16.1 25.7 0.00 0.64 0.64 69 1008.2
20260903205516 30 180 12.9 19.3 0.00 0.64 0.64 71 1008.6
20260903204516 29 180 14.5 20.9 0.00 0.64 0.64 70 1008.6
20260903203516 29 203 17.7 25.7 0.00 0.64 0.64 69 1008.4
20260903202517 29 203 16.1 25.7 0.00 0.64 0.64 68 1008.4
20260903201536 30 203 20.9 35.4 0.00 0.64 0.64 67 1008.4
20260903200516 30 203 20.9 29.0 0.00 0.64 0.64 66 1008.6
20260903195516 30 203 24.1 37.0 0.00 0.64 0.64 66 1008.5
20260903194536 30 180 24.1 38.6 0.00 0.64 0.64 67 1008.5
20260903193516 30 203 24.1 35.4 0.00 0.64 0.64 67 1008.6
20260903192517 30 180 27.4 46.7 0.00 0.64 0.64 65 1008.6
20260903191536 30 203 29.0 43.5 0.00 0.64 0.64 65 1008.7
20260903190556 30 203 24.1 43.5 0.00 0.64 0.64 67 1008.7
20260903185516 30 180 22.5 38.6 0.00 0.64 0.64 68 1008.8
20260903184517 30 203 27.4 40.2 0.00 0.64 0.64 67 1008.8